Flag Weather past 2 weeks in Norman Wells, Northwest Territories, Canada

Now
-24 °F

Snow flurries. Passing clouds.


Feels Like: -38 °F
Forecast: -25 / -12 °F
Wind: 5 mph from East

Location: Norman Wells

Current Time: Nov 27, 2014 at 6:46:37 AM

Latest Report: Nov 27, 2014 at 6:00 AM


Visibility: 30 mi

Pressure: 30.74 "Hg

Humidity: 75%

Dew point: -29 °F

Location of Norman WellsLocation

Historic Weather in Norman Wells — Graph

°F

Norman Wells temperature yesterday

Maximum temperature yesterday: 0 °F (at 2:00 AM)
Minimum temperature yesterday: -13 °F (at 11:00 PM)
Average temperature yesterday: -5 °F

Past Weeks' High & Low Weather Summary

 TemperatureHumidityPressure
High23 °F (Nov 18, 8:00 PM)93% (Nov 15, 6:00 PM)30.77 "Hg (Nov 15, 6:00 PM)
Low-36 °F (Nov 23, 7:00 PM)66% (Nov 23, 5:00 AM)29.76 "Hg (Nov 20, 12:00 AM)
Average-1 °F80%30.22 "Hg
* Reported Nov 12 5:00 AM — Nov 27 5:00 AM, Norman Wells, Weather by CustomWeather, © 2014

Note: Actual official high and low records may vary slightly from our data, if they occured in-between our weather recording intervals... More about our weather records

Advertising

Norman Wells weather history for previous 24 hours

 ConditionsComfort  
Time TempWeatherWind HumidityBarometerVisibility
5:00 AM
Nov 27
-26 °FSnow flurries. Passing clouds.2 mph67%30.75 "Hg30 mi
4:00 AM-26 °FSnow flurries. Passing clouds.No wind75%30.76 "Hg30 mi
3:00 AM-22 °FSnow flurries. Passing clouds.3 mph75%30.77 "Hg30 mi
2:00 AM-22 °FPassing clouds.No wind75%30.76 "Hg30 mi
1:00 AM-13 °FSnow flurries. Passing clouds.5 mph76%30.76 "Hg30 mi
12:00 AM-15 °FSnow flurries. Passing clouds.7 mph83%30.76 "Hg30 mi
11:00 PM
Nov 26
-13 °FPassing clouds.8 mph76%30.76 "Hg30 mi
10:00 PM-9 °FSnow flurries. Passing clouds.8 mph77%30.75 "Hg30 mi
9:00 PM-9 °FSnow flurries. Passing clouds.14 mph77%30.75 "Hg30 mi
8:00 PM-9 °FSnow flurries. Passing clouds.18 mph77%30.74 "Hg30 mi
7:00 PM-11 °FSnow flurries. Passing clouds.9 mph84%30.75 "Hg30 mi
6:00 PM-11 °FSnow flurries. Low level haze.10 mph84%30.75 "Hg30 mi
5:00 PM-9 °FSnow flurries. Low level haze.15 mph77%30.73 "Hg30 mi
4:00 PM-9 °FSnow flurries. Low level haze.17 mph84%30.73 "Hg30 mi
3:00 PM-8 °FSnow flurries. Low level haze.18 mph77%30.71 "Hg30 mi
2:00 PM-6 °FSnow flurries. Passing clouds.18 mph77%30.70 "Hg30 mi
1:00 PM-4 °FSnow flurries. Scattered clouds.18 mph71%30.69 "Hg30 mi
12:00 PM-6 °FSnow flurries. Scattered clouds.14 mph77%30.69 "Hg20 mi
11:00 AM-4 °FLight snow. Passing clouds.13 mph77%30.68 "Hg15 mi
10:00 AM-4 °FLight snow. Passing clouds.20 mph77%30.66 "Hg15 mi
9:00 AM-2 °FLight snow. Partly cloudy.16 mph71%30.66 "Hg15 mi
8:00 AM0 °FLight snow. Partly cloudy.16 mph71%30.64 "Hg15 mi
7:00 AM-2 °FLight snow. Passing clouds.12 mph77%30.61 "Hg15 mi
6:00 AM-2 °FPassing clouds.10 mph71%30.59 "Hg15 mi
Weather by CustomWeather, © 2014

See weather overviewHow to use our weather pages